Alamosa, CO

3:26 PM MDT on April 20, 2018 (GMT -0600)
San Luis Valley Regional / Bergman Field

Weather History for KALS - January, 2015

Change the Weather History Date:

Thursday, January 1, 2015

  Actual Average Record
Temperature  
Mean Temperature 10 °F 16 °F  
Max Temperature 29 °F 34 °F 51 °F (1981)
Min Temperature -9 °F -2 °F -31 °F (1988)
Degree Days  
Heating Degree Days 55 49  
Month to date heating degree days 55 49  
Since 1 July heating degree days 3207 3686  
Cooling Degree Days 0 0  
Month to date cooling degree days 0 0  
Year to date cooling degree days 0 0  
Moisture  
Dew Point 0 °F    
Average Humidity 71    
Maximum Humidity 91    
Minimum Humidity 50    
Precipitation  
Precipitation 0.05 in 0.01 in 0.33 in (1974)
Month to date precipitation 0.05 0.01  
Year to date precipitation 0.05 0.01  
Snow  
Snow 0.50 in 0.10 in 6.40 in (1974)
Month to date snowfall 0.5 0.1  
Since 1 July snowfall 4.4 10.4  
Snow Depth T in    
Sea Level Pressure  
Sea Level Pressure 30.06 in    
Wind  
Wind Speed 6 mph (SE)    
Max Wind Speed 21 mph    
Max Gust Speed 27 mph    
Visibility 7 miles    
Events Fog , Snow    
T = Trace of Precipitation, MM = Missing Value Source: NWS Daily Summary

Daily Weather History Graph

Daily Weather History Graph

Search for Another Location

Airport or City:

Astronomy

Jan. 01, 2015 Rise Set
Actual Time 7:17 AM MST 4:56 PM MST
Civil Twilight 6:48 AM MST 5:25 PM MST
Nautical Twilight 6:16 AM MST 5:58 PM MST
Astronomical Twilight 5:44 AM MST 6:29 PM MST
Moon 2:29 PM MST (1/1) 3:51 AM MST (1/1)
Length of Visible Light 10h 36m
Length of Day
9h 38m
Waxing Gibbous, 88% of the Moon is Illuminated
Jan 1
Waxing Gibbous
Jan 4
Full
Jan 13
Last Quarter
Jan 20
New
Jan 26
First Quarter

Hourly Weather History & Observations

Time (MST) Temp. Windchill Dew Point Humidity Pressure Visibility Wind Dir Wind Speed Gust Speed Precip Events Conditions
12:52 AM -4.0 °F - -8.0 °F 83% 30.27 in 9.0 mi Calm Calm - N/A   Scattered Clouds
1:52 AM -7.1 °F - -11.9 °F 79% 30.26 in 9.0 mi Calm Calm - N/A   Clear
2:31 AM -8.0 °F -16.9 °F -13.0 °F 79% 29.99 in 8.0 mi South 3.5 mph - N/A   Partly Cloudy
2:49 AM -9.4 °F -18.6 °F -13.0 °F 84% 29.98 in 8.0 mi NNE 3.5 mph - N/A   Mostly Cloudy
2:52 AM -9.0 °F -18.2 °F -13.0 °F 83% 30.25 in 8.0 mi North 3.5 mph - N/A   Mostly Cloudy
3:24 AM -7.1 °F - -9.9 °F 87% 29.96 in 1.8 mi Calm Calm - N/A   Overcast
3:34 AM -6.0 °F - -8.0 °F 91% 29.96 in 0.5 mi Calm Calm - N/A Fog Light Freezing Fog
3:52 AM -6.0 °F -14.7 °F -8.0 °F 91% 30.20 in 0.5 mi NNW 3.5 mph - N/A Fog Light Freezing Fog
4:09 AM -6.0 °F -14.7 °F -9.0 °F 87% 29.95 in 2.0 mi Variable 3.5 mph - N/A   Overcast
4:17 AM -5.1 °F -15.8 °F -9.0 °F 83% 29.93 in 7.0 mi ENE 4.6 mph - N/A   Overcast
4:33 AM -4.0 °F - -9.0 °F 79% 29.92 in 9.0 mi Calm Calm - N/A   Mostly Cloudy
4:52 AM -2.9 °F - -6.0 °F 87% 30.18 in 9.0 mi Calm Calm - N/A   Mostly Cloudy
5:52 AM -0.0 °F -7.9 °F -4.0 °F 83% 30.18 in 9.0 mi SSE 3.5 mph - N/A   Overcast
6:02 AM -0.0 °F -7.9 °F -4.0 °F 83% 29.89 in 1.8 mi North 3.5 mph - 0.00 in Snow Light Snow
6:09 AM 1.0 °F - -4.0 °F 79% 29.88 in 1.0 mi Calm Calm - 0.00 in Snow Light Snow
6:16 AM 1.0 °F -6.7 °F -2.9 °F 83% 29.87 in 2.0 mi North 3.5 mph - 0.00 in Snow Light Snow
6:25 AM 1.9 °F -7.6 °F -0.9 °F 88% 29.87 in 5.0 mi North 4.6 mph - 0.00 in Snow Light Snow
6:52 AM 3.0 °F - -0.9 °F 84% 30.12 in 7.0 mi Calm Calm - 0.00 in   Overcast
7:27 AM 3.9 °F - -0.0 °F 84% 29.87 in 1.8 mi Calm Calm - 0.00 in Snow Light Snow
7:37 AM 5.0 °F -2.1 °F 1.0 °F 84% 29.87 in 0.8 mi NE 3.5 mph - 0.00 in Snow Light Snow
7:52 AM 5.0 °F -2.1 °F 1.0 °F 84% 30.17 in 1.0 mi NNW 3.5 mph - 0.01 in Snow Light Snow
8:14 AM 6.1 °F -2.8 °F 1.9 °F 83% 29.88 in 0.2 mi SSW 4.6 mph - 0.00 in Fog , Snow Heavy Snow
8:30 AM 8.1 °F - 5.0 °F 87% 29.88 in 0.5 mi Calm Calm - 0.03 in Fog , Snow Light Snow
8:35 AM 8.1 °F 1.4 °F 5.0 °F 87% 29.88 in 1.0 mi SSE 3.5 mph - 0.03 in Snow Light Snow
8:42 AM 9.0 °F -0.9 °F 6.1 °F 88% 29.88 in 3.0 mi SE 5.8 mph - 0.04 in Snow Light Snow
8:52 AM 10.0 °F - 6.1 °F 84% 30.18 in 6.0 mi Calm Calm - 0.04 in   Mostly Cloudy
9:00 AM 10.9 °F 2.9 °F 7.0 °F 84% 29.89 in 9.0 mi SE 4.6 mph - N/A   Scattered Clouds
9:33 AM 10.0 °F -1.9 °F 5.0 °F 80% 29.91 in 10.0 mi SE 8.1 mph - N/A   Mostly Cloudy
9:43 AM 12.9 °F 1.6 °F 8.1 °F 81% 29.91 in 10.0 mi ESE 8.1 mph - N/A   Overcast
9:52 AM 14.0 °F 2.0 °F 9.0 °F 80% 30.18 in 10.0 mi East 9.2 mph - N/A   Overcast
10:45 AM 21.9 °F 9.8 °F 14.0 °F 72% 29.89 in 10.0 mi SSE 12.7 mph - N/A   Scattered Clouds
10:52 AM 21.9 °F 9.8 °F 14.0 °F 72% 30.12 in 10.0 mi SSE 12.7 mph - N/A   Partly Cloudy
11:52 AM 27.0 °F 14.3 °F 16.0 °F 63% 30.06 in 10.0 mi South 17.3 mph - N/A   Clear
12:52 PM 28.0 °F 15.7 °F 15.1 °F 58% 30.04 in 10.0 mi South 17.3 mph - N/A   Clear
1:52 PM 28.0 °F 14.9 °F 16.0 °F 61% 30.05 in 10.0 mi South 19.6 mph - N/A   Clear
2:52 PM 28.0 °F 20.0 °F 12.9 °F 53% 30.08 in 10.0 mi SSW 8.1 mph - N/A   Clear
3:52 PM 24.1 °F 16.0 °F 12.9 °F 62% 30.12 in 10.0 mi North 6.9 mph - N/A   Clear
4:52 PM 18.0 °F 8.7 °F 10.0 °F 71% 30.16 in 10.0 mi NW 6.9 mph - N/A   Clear
5:52 PM 10.9 °F - 7.0 °F 84% 30.20 in 10.0 mi Calm Calm - N/A   Clear
6:52 PM 6.1 °F -4.3 °F 3.0 °F 87% 30.23 in 10.0 mi West 5.8 mph - N/A   Clear
7:52 PM -0.9 °F - -4.0 °F 87% 30.28 in 10.0 mi Calm Calm - N/A   Clear
8:52 PM -2.9 °F -15.0 °F -7.1 °F 82% 30.28 in 10.0 mi South 5.8 mph - N/A   Clear
9:52 PM -2.9 °F -11.2 °F -6.0 °F 87% 30.27 in 10.0 mi SW 3.5 mph - N/A   Clear
10:52 PM -5.1 °F -15.8 °F -9.9 °F 80% 30.25 in 10.0 mi South 4.6 mph - N/A   Clear
11:52 PM -7.1 °F -15.9 °F -11.9 °F 79% 30.23 in 10.0 mi Variable 3.5 mph - N/A   Clear